Zurück zum Katalog

STARLINK-35803

AktivKommunikationVLEO
NORAD 66568·PAYLOAD·🇺🇸 United States

Gestartet Nov 21, 2025 von Cape Canaveral Space Force Station

Loading…

Nächste Überflüge (nächste 24 Stunden)

TLE

AktuellSource: CelesTrak SupGP

Epoche: Sep 14, 2026, 21:26 UTC

1 66568C 25268M   26257.89354167 -.00003581  00000+0 -12976-3 0  2572
2 66568  43.0033 358.1835 0001638 276.1105 317.9844 15.27570152    11

Verfolge STARLINK-35803 in Echtzeit mit AllMySat

Download on the App Store